This demonstration page uses our WeatherBlox Daily Observations layout. Learn more.

Hourly Observations for February 6, 2017

Temp ( °F °C ) Dew Point ( °F °C ) Humidity (%) Winds ( mph kmh ) Pressure ( in mb ) Visibility ( mi km ) Precip ( " mm )
12:54 am 00:54 Clear 25 -3.9 20 -6.7 81 81 S 7 11 29.93 1014 9 14.48406 0 0
1:54 am 01:54 Clear 28 -2.2 21 -6.1 75 75 Calm 29.92 1013 9 14.48406 0 0
2:54 am 02:54 Clear 25 -3.9 20 -6.7 81 81 S 3 6 29.89 1012 9 14.48406 0 0
3:54 am 03:54 Clear 22 -5.6 18 -7.8 85 85 Calm 29.87 1012 8 12.87472 0 0
4:54 am 04:54 Clear 25 -3.9 20 -6.7 81 81 Calm 29.86 1011 9 14.48406 0 0
5:54 am 05:54 Clear 22 -5.6 19 -7.2 89 89 Calm 29.85 1011 8 12.87472 0 0
6:54 am 06:54 Clear 23 -5 20 -6.7 88 88 Calm 29.85 1011 7 11.26538 0 0
7:54 am 07:54 Sunny with Mist and Fog 22 -5.6 19 -7.2 89 89 SSE 6 9 29.83 1010 6 9.65604 0 0
8:54 am 08:54 Partly Cloudy with Mist and Fog 31 -0.6 30 -1.1 96 96 SSE 5 7 29.78 1009 3 4.82802 0 0
9:07 am 09:07 Mostly Cloudy with Mist and Fog 32 0 30 -1.1 92 92 S 3 6 29.8 1009 4 6.43736 0 0
9:24 am 09:24 Cloudy with Mist and Fog 34 1 30 -1 87 87 WSW 3 6 29.8 1009 4 6.43736 0 0
9:39 am 09:39 Cloudy with Mist and Fog 33 0.6 31 -0.6 92 92 Calm 29.83 1010 1.5 2.41401 0 0
9:54 am 09:54 Cloudy with Fog 34 1.1 32 0 92 92 Calm 29.79 1009 0.5 0.80467 0 0
10:14 am 10:14 Cloudy with Fog 34 1 34 1 100 100 Calm 29.83 1010 1 1.60934 0 0
10:54 am 10:54 Cloudy with Fog 36 2.2 36 2.2 100 100 VRB 3 6 29.79 1009 1 1.60934 0 0
11:01 am 11:01 Cloudy with Fog 37 2.8 36 2.2 96 96 Calm 29.8 1009 0.5 0.80467 0 0
11:24 am 11:24 Cloudy with Mist and Fog 37 3 37 3 100 100 SE 7 11 29.77 1008 1.25 2.011675 0 0
11:46 am 11:46 Cloudy with Mist and Fog 40 4.4 39 3.9 97 97 SE 6 9 29.74 1007 2 3.21868 0 0
11:54 am 11:54 Cloudy with Mist and Fog 40 4.4 39 3.9 97 97 SE 5 7 29.75 1007 2 3.21868 0 0
12:23 pm 12:23 Cloudy with Mist and Fog 42 5.6 39 3.9 89 89 ESE 5 7 29.74 1007 3 4.82802 0 0
12:54 pm 12:54 Cloudy with Haze 45 7.2 40 4.4 83 83 S 5 7 29.69 1006 4 6.43736 0 0
1:05 pm 13:05 Cloudy with Haze 47 8.3 41 5 80 80 S 10 17 29.65 1004 5 8.0467 0 0
1:54 pm 13:54 Cloudy with Haze 46 7.8 40 4.4 79 79 S 9 15 29.64 1004 5 8.0467 0 0
2:54 pm 14:54 Cloudy with Haze 48 8.9 41 5 77 77 SSE 5 7 29.6 1002 6 9.65604 0 0
3:31 pm 15:31 Cloudy with Haze 49 9.4 42 5.6 77 77 SSW 5 7 29.59 1002 6 9.65604 0 0
3:49 pm 15:49 Cloudy with Haze 48 9 41 5 76 76 SSE 3 6 29.59 1002 6 9.65604 0 0
3:54 pm 15:54 Cloudy with Haze 48 8.9 42 5.6 80 80 Calm 29.58 1002 6 9.65604 0 0
4:54 pm 16:54 Cloudy 47 8.3 41 5 80 80 SSW 3 6 29.59 1002 7 11.26538 0 0
5:54 pm 17:54 Cloudy with Mist and Fog 45 7.2 41 5 86 86 SE 3 6 29.57 1001 5 8.0467 0 0
6:11 pm 18:11 Cloudy with Mist and Fog 45 7.2 41 5 86 86 SE 5 7 29.56 1001 6 9.65604 0 0
6:20 pm 18:20 Cloudy 45 7 41 5 87 87 ESE 5 7 29.56 1001 7 11.26538 0 0
6:47 pm 18:47 Cloudy 45 7.2 40 4.4 83 83 SE 5 7 29.56 1001 8 12.87472 0 0
6:54 pm 18:54 Cloudy 44 6.7 40 4.4 85 85 SSE 3 6 29.57 1001 8 12.87472 0 0
7:54 pm 19:54 Cloudy 43 6.1 39 3.9 86 86 Calm 29.57 1001 7 11.26538 0 0
8:06 pm 20:06 Cloudy 43 6.1 39 3.9 86 86 Calm 29.59 1002 7 11.26538 0 0
8:54 pm 20:54 Cloudy 42 5.6 39 3.9 89 89 NNW 3 6 29.56 1001 7 11.26538 0 0
9:03 pm 21:03 Cloudy 43 6 39 4 87 87 Calm 29.56 1001 7 11.26538 0 0
9:43 pm 21:43 Cloudy with Mist and Fog 42 5.6 39 3.9 89 89 Calm 29.59 1002 6 9.65604 0 0
9:54 pm 21:54 Cloudy with Mist and Fog 42 5.6 39 3.9 89 89 Calm 29.54 1000 6 9.65604 0 0
10:14 pm 22:14 Cloudy 41 5 37 3 87 87 N 3 6 29.56 1001 7 11.26538 0 0
10:54 pm 22:54 Cloudy with Mist and Fog 42 5.6 40 4.4 92 92 SW 3 6 29.54 1000 4 6.43736 0 0
11:13 pm 23:13 Cloudy with Mist and Fog 43 6.1 41 5 93 93 W 5 7 29.56 1001 4 6.43736 0 0
11:32 pm 23:32 Cloudy with Mist and Fog 43 6 41 5 93 93 WSW 5 7 29.56 1001 2.5 4.02335 0 0
11:44 pm 23:44 Cloudy with Mist and Fog 43 6 41 5 93 93 WNW 3 6 29.56 1001 2.5 4.02335 0 0
11:54 pm 23:54 Cloudy with Mist and Fog 42 5.6 41 5 96 96 Calm 29.53 1000 2.5 4.02335 0 0

Powered by AerisWeather